Weather History for Billings, MT

Change the Weather History Date:

Saturday, May 11, 2013

  Actual Average Record
Temperature  
Mean Temperature 58 °F 54 °F  
Max Temperature 77 °F 66 °F 89 °F (1960)
Min Temperature 39 °F 42 °F 20 °F (1953)
Degree Days  
Heating Degree Days 7 11  
Month to date heating degree days 119 141  
Since 1 July heating degree days 6211 6518  
Cooling Degree Days 0 0  
Month to date cooling degree days 0 0  
Year to date cooling degree days 0 1  
Growing Degree Days 8 (Base 50)    
Moisture  
Dew Point 29 °F    
Average Humidity 35    
Maximum Humidity 49    
Minimum Humidity 21    
Precipitation  
Precipitation 0.00 in 0.07 in 2.11 in (1981)
Month to date precipitation 0.08 0.72  
Year to date precipitation 2.24 4.40  
Snow  
Snow 0.00 in 0.00 in 15.00 in (1981)
Month to date snowfall T 1.2  
Since 1 July snowfall 40.4 54.2  
Snow Depth 0.00 in    
Sea Level Pressure  
Sea Level Pressure 30.22 in    
Wind  
Wind Speed 6 mph (WSW)    
Max Wind Speed 14 mph    
Max Gust Speed 17 mph    
Visibility 10 miles    
Events      
T = Trace of Precipitation, MM = Missing Value Source: NWS Daily Summary

Daily Weather History Graph

Daily Weather History Graph

Search for Another Location

Airport:

Trip Planner

Search our weather history database for the weather conditions in past years. The results will help you decide how hot, cold, wet, or windy it might be!

Date:

Astronomy

May. 11, 2013 Rise Set
Actual Time 5:47 AM MDT 8:34 PM MDT
Civil Twilight 5:12 AM MDT 9:09 PM MDT
Nautical Twilight 4:29 AM MDT 9:53 PM MDT
Astronomical Twilight 3:38 AM MDT 10:44 PM MDT
Moon 6:55 AM MDT (5/11) 10:19 PM MDT (5/11)
Length of Visible Light 15h 56m
Length of Day
14h 47m
Waxing Crescent, 3% of the Moon is Illuminated
May 11
Waxing Crescent
May 17
First Quarter
May 24
Full
May 31
Last Quarter
Jun 8
New

Hourly Weather History & Observations

Time (MDT) Temp. Windchill Dew Point Humidity Pressure Visibility Wind Dir Wind Speed Gust Speed Precip Events Conditions
12:53 AM 43.0 °F 41.3 °F 24.1 °F 47% 30.39 in 10.0 mi NNW 3.5 mph - N/A   Clear
1:53 AM 45.0 °F 42.6 °F 24.1 °F 44% 30.38 in 10.0 mi North 4.6 mph - N/A   Clear
2:53 AM 45.0 °F 42.6 °F 23.0 °F 42% 30.38 in 10.0 mi North 4.6 mph - N/A   Clear
3:53 AM 41.0 °F 39.0 °F 23.0 °F 49% 30.38 in 10.0 mi North 3.5 mph - N/A   Clear
4:53 AM 43.0 °F - 23.0 °F 45% 30.36 in 10.0 mi Calm Calm - N/A   Partly Cloudy
5:53 AM 39.9 °F 35.8 °F 21.9 °F 49% 30.37 in 10.0 mi NNW 5.8 mph - N/A   Partly Cloudy
6:53 AM 46.0 °F - 23.0 °F 40% 30.36 in 10.0 mi Calm Calm - N/A   Partly Cloudy
7:53 AM 46.0 °F 44.8 °F 28.0 °F 50% 30.35 in 10.0 mi South 3.5 mph - N/A   Clear
8:53 AM 50.0 °F - 27.0 °F 41% 30.34 in 10.0 mi SSW 4.6 mph - N/A   Partly Cloudy
9:53 AM 55.0 °F - 26.1 °F 33% 30.31 in 10.0 mi South 4.6 mph - N/A   Scattered Clouds
10:53 AM 60.1 °F - 26.1 °F 27% 30.28 in 10.0 mi Variable 3.5 mph - N/A   Scattered Clouds
11:53 AM 64.9 °F - 27.0 °F 24% 30.25 in 10.0 mi Variable 5.8 mph - N/A   Scattered Clouds
12:53 PM 68.0 °F - 30.0 °F 24% 30.22 in 10.0 mi Variable 4.6 mph - N/A   Scattered Clouds
1:53 PM 70.0 °F - 30.9 °F 24% 30.19 in 10.0 mi Variable 5.8 mph - N/A   Scattered Clouds
2:53 PM 70.0 °F - 32.0 °F 25% 30.17 in 10.0 mi NNE 9.2 mph - N/A   Scattered Clouds
3:53 PM 71.1 °F - 32.0 °F 24% 30.14 in 10.0 mi South 8.1 mph - N/A   Scattered Clouds
4:53 PM 73.0 °F - 32.0 °F 22% 30.10 in 10.0 mi Variable 4.6 mph - N/A   Partly Cloudy
5:53 PM 75.9 °F - 34.0 °F 22% 30.07 in 10.0 mi SSW 6.9 mph - N/A   Partly Cloudy
6:53 PM 75.9 °F - 34.0 °F 22% 30.04 in 10.0 mi SW 8.1 mph - N/A   Partly Cloudy
7:53 PM 73.4 °F - 33.8 °F 23% 30.08 in 10.0 mi SW 4.6 mph - N/A   Partly Cloudy
8:53 PM 73.0 °F - 34.0 °F 24% 30.03 in 10.0 mi WSW 4.6 mph - N/A   Scattered Clouds
9:53 PM 71.1 °F - 35.1 °F 27% 30.04 in 10.0 mi SSE 5.8 mph - N/A   Mostly Cloudy
10:53 PM 68.0 °F - 36.0 °F 31% 30.03 in 10.0 mi WSW 8.1 mph - N/A   Partly Cloudy
11:53 PM 66.0 °F - 35.1 °F 32% 30.01 in 10.0 mi West 10.4 mph - N/A   Partly Cloudy